Wind_Speed
18 18 19 20 19 20 21 21 23 24 26 27 29 30 30 31 31 31 32 32 33 33 34 34 35 35 36 37 37 37 36 36 36 37 37 38 38 39 40 40 40 41 42 42
16 17 17 17 17 18 19 19 21 23 24 25 26 28 28 29 30 31 31 32 33 33 34 35 35 36 36 36 36 36 36 36 37 37 38 38 38 38 39 40 40 40 41 42
13 14 14 15 16 16 17 18 19 21 22 24 25 26 26 27 29 30 31 32 33 33 34 35 35 35 34 35 35 36 36 36 37 37 37 37 37 38 39 40 40 41 41 41
10 11 12 12 13 14 14 16 17 19 20 21 23 24 25 26 28 29 30 30 31 32 33 33 34 34 34 35 35 35 35 35 35 35 35 36 36 37 37 38 39 39 40 40
7 8 8 9 10 11 12 13 14 16 18 19 20 23 23 25 25 26 27 28 29 30 31 31 32 33 33 33 33 33 33 33 33 34 35 35 35 36 36 37 37 38 39 40
5 6 7 7 8 9 11 12 13 14 16 17 18 19 19 20 21 23 24 25 26 27 29 30 30 31 31 31 31 32 32 33 33 33 33 34 35 36 36 37 37 38 39 39
4 4 5 6 7 8 9 10 12 13 14 15 15 16 17 18 19 21 22 23 24 25 26 27 28 29 30 31 31 31 32 32 33 33 34 34 35 36 36 37 37 37 38 38
3 3 4 5 6 8 9 9 10 12 13 14 15 16 16 17 18 19 20 21 23 24 25 26 27 28 29 29 30 30 32 32 33 34 34 35 35 35 36 36 37 37 37 37
1 2 3 4 5 6 8 9 10 12 13 13 14 15 16 17 18 18 19 20 21 23 24 26 27 28 28 29 30 30 31 32 33 33 34 34 34 35 35 35 35 36 36 37
1 0 1 3 4 5 6 8 9 11 12 12 12 14 15 16 16 17 19 20 21 22 24 25 26 27 28 28 29 30 31 32 32 33 33 33 33 34 34 34 35 35 35 36
3 2 2 2 3 5 6 8 9 10 12 13 12 12 15 16 17 18 19 20 21 23 24 25 25 26 27 28 29 30 31 31 31 32 32 32 33 33 33 34 34 34 34 35
4 4 3 4 5 5 6 8 9 11 12 12 13 12 15 17 18 19 20 21 22 23 24 24 25 26 27 28 29 30 30 30 31 31 32 32 32 32 33 33 33 34 34 35
6 5 5 6 7 8 9 10 11 12 13 13 13 13 16 16 17 18 20 21 22 23 24 25 25 26 27 27 28 28 29 30 31 31 31 32 32 33 33 33 34 35 35 36
8 8 9 9 10 11 11 12 13 14 14 14 14 15 17 19 18 19 20 21 22 23 24 24 24 25 26 27 27 28 28 29 30 31 31 32 32 33 34 34 35 35 35 35
11 11 12 12 13 13 13 13 15 15 16 16 16 17 19 20 20 20 21 21 22 23 23 23 24 25 26 26 26 27 28 29 30 30 30 31 32 33 33 34 35 35 36 36
14 14 14 14 15 15 14 15 16 17 18 18 18 19 21 20 21 21 22 22 23 24 24 24 25 26 26 27 27 28 29 29 29 30 31 32 33 33 33 33 34 35 36 37
16 17 17 16 17 16 16 17 19 19 20 21 21 21 22 22 22 22 23 24 24 25 26 26 27 27 28 28 29 29 29 30 30 31 32 32 32 32 33 34 35 36 37 38
19 19 19 19 20 20 19 20 21 22 23 24 24 24 24 24 24 25 26 26 26 26 27 28 28 29 29 30 30 31 31 31 32 32 32 32 32 33 34 35 36 36 37 39
22 22 23 23 23 23 24 24 25 26 26 27 27 27 27 27 27 28 29 29 29 30 30 30 30 31 32 32 33 33 33 34 33 33 33 34 34 35 36 36 37 38 39 40
25 26 27 27 28 27 28 29 29 29 29 30 30 30 30 31 31 31 31 32 32 33 33 33 33 33 34 34 34 34 34 35 35 35 35 35 36 36 37 38 39 40 40 41
28 29 30 31 31 30 31 32 32 32 32 32 33 33 34 34 34 34 34 34 34 35 35 35 35 35 35 36 36 36 35 35 36 36 37 37 37 37 38 38 39 40 40 41
31 32 32 33 33 33 34 35 35 35 34 35 35 35 36 36 35 36 36 36 36 36 37 37 37 37 37 37 37 37 36 37 37 38 38 38 38 38 39 39 39 39 40 40
34 35 36 36 35 36 37 37 37 38 37 37 37 37 38 38 37 37 37 38 38 39 39 38 38 38 38 38 38 38 38 38 38 39 39 39 39 39 39 40 40 41 41 41
37 38 40 39 38 38 39 39 40 40 40 40 39 39 40 40 40 40 40 40 40 40 39 39 39 38 38 39 39 39 39 39 39 39 39 39 39 40 40 41 41 42 41 41
41 42 43 43 41 42 41 42 42 43 43 42 42 42 42 42 42 42 42 41 41 41 40 40 39 38 39 39 39 40 40 41 40 40 40 40 40 40 41 41 42 42 42 42
42 44 45 45 44 45 44 44 44 44 43 44 44 44 43 43 43 43 43 42 42 42 42 41 41 40 40 40 40 41 41 41 41 41 41 41 41 42 42 42 42 43 42 42
Wind_Direction
194 199 201 206 212 217 223 229 233 235 237 239 241 241 244 246 248 249 253 257 259 261 263 265 267 269 270 271 272 273 274 276 277 278 279 279 280 281 280 279 279 279 279 278
192 198 203 209 214 218 224 229 235 239 239 240 243 244 246 247 250 253 255 258 260 263 265 267 269 271 272 272 273 274 275 277 278 279 279 280 281 281 281 281 281 281 280 279
190 198 204 211 218 222 231 236 239 242 243 245 245 246 249 252 255 257 259 261 262 265 267 269 271 272 273 274 275 276 277 278 279 279 279 279 281 282 283 283 282 282 282 280
185 197 205 211 219 227 235 237 241 244 246 248 249 252 252 256 258 260 262 263 265 266 268 270 272 274 275 276 276 277 279 280 280 279 280 281 282 283 283 284 283 283 283 282
185 196 207 218 225 232 237 239 245 248 250 254 258 262 261 260 261 263 264 265 267 268 270 271 273 275 276 277 277 278 280 281 281 280 282 283 284 285 286 287 285 285 284 284
185 206 220 227 232 236 241 246 250 255 256 260 264 266 266 263 263 263 264 266 268 269 271 273 274 276 276 278 279 280 280 282 282 283 283 284 285 287 288 289 289 288 288 286
186 209 223 229 235 242 246 250 257 261 261 263 266 269 269 267 266 267 268 269 270 271 273 275 276 277 278 279 280 281 282 283 283 284 285 286 287 289 290 290 290 290 289 288
195 214 228 238 246 249 253 259 264 268 267 266 268 272 274 272 272 272 272 272 272 274 275 276 278 279 280 280 281 282 283 284 285 286 286 287 288 290 291 292 292 291 290 289
185 234 246 256 263 264 268 270 272 275 275 275 274 275 277 276 274 274 274 274 275 275 277 278 280 281 281 282 283 284 285 286 287 287 287 288 289 291 292 293 293 293 291 290
52 294 271 272 279 279 278 279 280 283 285 284 281 281 279 279 278 277 277 278 279 279 280 281 281 282 283 284 285 286 287 288 288 288 288 289 290 291 292 294 295 295 294 294
43 21 331 301 290 290 289 290 289 291 292 294 291 289 285 283 281 280 280 281 283 284 284 284 285 285 286 286 286 287 288 288 288 289 290 291 291 292 293 294 295 295 296 296
16 2 341 320 310 305 303 300 297 297 298 299 300 298 290 287 286 285 284 284 285 286 286 287 287 288 289 289 288 288 289 289 289 290 291 292 293 294 295 296 296 296 296 297
350 340 331 322 314 308 303 300 298 298 300 299 301 302 296 294 293 293 291 290 289 289 290 289 289 290 291 291 291 291 292 291 290 291 291 292 294 294 295 296 296 297 297 298
331 327 319 314 309 305 303 301 299 301 302 300 300 296 294 295 298 298 297 296 295 294 293 292 292 293 294 294 294 294 294 294 294 293 293 293 294 295 296 296 297 298 299 299
318 315 311 308 304 303 302 300 299 302 302 301 301 298 294 294 296 298 298 298 297 296 294 294 295 297 297 297 297 298 298 297 296 295 294 295 295 296 297 298 299 299 299 300
309 308 306 306 303 302 300 298 298 300 300 300 299 297 296 298 298 298 299 299 297 296 296 296 297 299 299 298 298 300 301 299 297 296 295 296 297 298 299 300 300 300 301 301
306 303 301 300 298 298 297 296 296 297 296 296 296 295 294 296 297 298 298 298 297 295 295 295 296 297 298 298 298 299 301 301 299 298 297 298 298 299 300 300 301 302 302 302
301 299 298 297 294 294 296 295 294 294 294 294 293 292 292 293 294 295 296 296 295 294 294 295 296 297 296 297 298 299 300 301 301 300 299 299 299 300 300 301 302 303 303 303
298 296 296 294 292 292 293 293 292 293 293 293 292 291 291 292 293 294 295 294 294 294 294 296 296 297 296 296 297 298 299 300 300 300 300 299 299 299 300 301 302 303 303 304
297 295 295 294 292 292 293 291 291 291 291 290 291 291 291 292 292 292 292 292 292 293 294 295 296 296 296 296 297 298 298 299 299 299 299 300 300 300 300 301 302 303 304 305
296 294 293 292 292 293 293 291 291 291 292 291 291 291 291 291 292 292 291 291 291 293 293 293 294 295 296 296 296 297 298 298 299 299 299 300 300 300 301 302 303 304 305 305
296 294 292 291 293 293 292 290 290 290 290 290 290 290 290 291 291 292 292 291 291 292 292 293 293 294 294 294 295 296 296 297 298 299 299 299 300 301 301 302 304 305 305 306
294 293 292 291 292 291 290 289 289 288 288 288 288 289 289 290 290 291 292 292 291 292 292 292 292 293 293 293 294 295 296 297 297 298 298 299 300 301 301 302 303 304 305 306
292 292 291 291 291 289 289 288 286 286 286 287 287 287 288 289 289 289 290 290 291 291 292 292 291 292 292 292 293 294 295 296 296 297 298 299 300 301 302 302 303 304 304 305
292 290 290 290 290 288 288 287 286 286 286 286 286 287 288 288 289 289 289 289 290 290 291 291 292 292 292 292 293 293 294 295 296 296 297 298 299 301 302 303 303 303 304 305
289 289 289 288 287 287 288 287 287 287 287 286 286 286 287 288 289 289 289 289 289 289 289 290 291 291 291 292 293 294 294 295 296 296 297 298 299 301 301 302 302 303 303 304
Height
5696 5701 5703 5707 5710 5714 5717 5719 5722 5724 5727 5729 5732 5735 5738 5740 5743 5745 5747 5748 5750 5751 5751 5751 5751 5751 5751 5751 5751 5750 5749 5748 5747 5746 5745 5744 5743 5741 5739 5738 5736 5734 5733 5731
5699 5701 5704 5707 5710 5712 5715 5717 5719 5721 5724 5726 5728 5731 5733 5735 5737 5739 5741 5742 5743 5744 5744 5745 5745 5745 5744 5744 5743 5743 5742 5741 5740 5738 5737 5736 5734 5733 5731 5729 5727 5725 5723 5721
5700 5703 5704 5707 5709 5712 5714 5716 5718 5720 5721 5723 5725 5728 5730 5731 5732 5734 5735 5736 5737 5738 5738 5738 5738 5738 5737 5737 5736 5735 5734 5733 5732 5730 5729 5728 5726 5724 5722 5719 5717 5715 5713 5711
5701 5703 5705 5707 5709 5711 5713 5714 5716 5717 5719 5720 5722 5724 5726 5726 5727 5729 5730 5730 5731 5731 5732 5732 5731 5731 5730 5730 5729 5728 5727 5725 5724 5722 5721 5719 5718 5716 5713 5711 5708 5706 5703 5701
5703 5704 5706 5707 5709 5710 5712 5713 5714 5715 5716 5718 5719 5719 5722 5722 5722 5723 5724 5725 5725 5725 5725 5725 5725 5724 5723 5722 5721 5720 5719 5718 5716 5715 5713 5711 5709 5707 5705 5702 5699 5697 5694 5692
5704 5705 5707 5708 5709 5710 5711 5712 5713 5713 5714 5716 5716 5716 5718 5717 5718 5718 5719 5719 5719 5719 5719 5718 5718 5717 5716 5715 5714 5713 5712 5711 5709 5707 5706 5704 5701 5699 5696 5693 5690 5687 5684 5682
5705 5706 5707 5708 5709 5710 5711 5712 5712 5712 5712 5714 5713 5713 5714 5714 5713 5713 5714 5714 5713 5713 5713 5712 5711 5710 5710 5709 5707 5706 5705 5703 5702 5700 5698 5695 5693 5690 5688 5685 5682 5678 5675 5672
5706 5707 5708 5708 5709 5709 5709 5710 5711 5711 5711 5711 5710 5710 5711 5710 5709 5709 5709 5709 5708 5708 5707 5706 5705 5704 5703 5702 5701 5699 5698 5696 5694 5692 5690 5687 5685 5682 5679 5676 5673 5670 5667 5664
5707 5708 5708 5708 5708 5709 5709 5709 5709 5709 5708 5708 5708 5708 5707 5706 5705 5704 5704 5703 5703 5702 5701 5700 5699 5698 5697 5695 5694 5692 5690 5688 5686 5684 5681 5679 5676 5674 5670 5667 5664 5660 5657 5654
5708 5709 5708 5708 5708 5708 5708 5708 5707 5707 5706 5705 5705 5704 5704 5702 5701 5700 5699 5699 5698 5697 5696 5694 5693 5692 5690 5689 5687 5685 5683 5681 5678 5676 5673 5671 5668 5665 5662 5659 5655 5652 5648 5645
5709 5710 5709 5708 5708 5707 5707 5707 5705 5704 5704 5703 5702 5704 5700 5698 5697 5696 5695 5694 5693 5692 5690 5688 5687 5685 5684 5682 5680 5678 5676 5673 5671 5668 5665 5663 5660 5657 5653 5650 5647 5643 5640 5637
5711 5710 5709 5709 5708 5707 5706 5705 5704 5703 5702 5700 5699 5702 5696 5694 5693 5692 5691 5689 5688 5686 5684 5682 5681 5679 5677 5675 5673 5670 5668 5666 5663 5660 5658 5655 5652 5648 5645 5642 5638 5635 5632 5628
5711 5710 5709 5708 5709 5707 5705 5703 5702 5701 5699 5698 5697 5699 5693 5691 5689 5688 5686 5684 5683 5681 5679 5677 5675 5673 5670 5668 5666 5663 5660 5658 5655 5652 5649 5646 5643 5640 5637 5634 5630 5627 5623 5619
5710 5710 5709 5708 5706 5704 5703 5702 5699 5698 5696 5695 5694 5694 5690 5687 5685 5684 5682 5680 5678 5676 5673 5671 5669 5666 5664 5662 5659 5656 5653 5650 5647 5644 5641 5638 5635 5632 5629 5626 5622 5618 5615 5611
5709 5708 5707 5705 5703 5702 5701 5699 5697 5695 5693 5692 5691 5689 5686 5683 5681 5679 5677 5674 5672 5670 5668 5665 5663 5660 5658 5655 5652 5650 5646 5643 5640 5637 5633 5630 5627 5624 5621 5617 5613 5610 5606 5602
5707 5706 5704 5703 5701 5699 5698 5696 5694 5692 5690 5687 5686 5684 5681 5679 5677 5674 5672 5670 5667 5665 5662 5660 5657 5655 5652 5649 5646 5643 5639 5635 5632 5629 5626 5622 5619 5616 5612 5609 5605 5601 5597 5593
5704 5702 5701 5700 5697 5696 5695 5693 5690 5688 5686 5683 5681 5680 5677 5675 5672 5670 5667 5665 5662 5659 5657 5654 5651 5649 5646 5642 5639 5636 5632 5628 5625 5621 5618 5615 5611 5608 5604 5601 5597 5593 5588 5584
5700 5697 5696 5695 5694 5692 5693 5688 5686 5683 5681 5678 5676 5673 5671 5669 5667 5664 5661 5659 5656 5653 5650 5648 5645 5642 5639 5635 5632 5629 5625 5621 5617 5614 5610 5607 5603 5600 5596 5592 5588 5584 5579 5575
5695 5693 5691 5689 5687 5686 5686 5683 5679 5677 5676 5672 5670 5667 5665 5662 5660 5658 5655 5652 5649 5646 5643 5640 5637 5634 5631 5628 5624 5621 5618 5614 5610 5606 5602 5599 5595 5591 5587 5583 5579 5574 5570 5565
5690 5688 5686 5683 5680 5679 5680 5676 5672 5671 5669 5666 5663 5660 5658 5655 5653 5652 5647 5644 5641 5638 5635 5632 5629 5626 5623 5619 5616 5613 5609 5605 5601 5598 5594 5590 5586 5582 5578 5574 5569 5564 5560 5554
5684 5681 5679 5676 5673 5672 5671 5667 5665 5664 5662 5658 5655 5652 5650 5647 5645 5642 5639 5636 5633 5630 5627 5624 5621 5618 5614 5611 5607 5604 5600 5596 5592 5589 5585 5581 5577 5573 5568 5564 5559 5554 5550 5544
5676 5674 5671 5668 5666 5667 5662 5659 5657 5655 5652 5649 5646 5643 5640 5638 5635 5633 5630 5627 5624 5621 5618 5615 5612 5609 5605 5601 5598 5595 5591 5587 5583 5579 5575 5571 5567 5563 5559 5554 5549 5544 5539 5534
5669 5666 5662 5661 5661 5657 5652 5649 5647 5644 5642 5639 5637 5634 5631 5629 5627 5624 5621 5618 5614 5611 5608 5605 5602 5598 5595 5591 5588 5585 5581 5577 5573 5569 5565 5561 5557 5553 5549 5544 5539 5534 5529 5524
5660 5657 5653 5651 5650 5646 5642 5639 5636 5633 5631 5629 5626 5624 5621 5619 5616 5614 5610 5607 5604 5601 5598 5594 5591 5588 5585 5581 5577 5574 5571 5567 5563 5559 5555 5551 5547 5543 5538 5534 5529 5524 5519 5514
5649 5645 5642 5640 5639 5635 5633 5629 5626 5623 5620 5617 5615 5612 5610 5607 5605 5602 5599 5596 5593 5590 5587 5584 5580 5577 5574 5570 5567 5563 5560 5556 5552 5548 5545 5540 5536 5532 5528 5523 5519 5514 5509 5503
5638 5633 5629 5628 5626 5621 5621 5618 5614 5611 5609 5606 5603 5601 5598 5595 5593 5590 5587 5584 5581 5578 5575 5572 5569 5566 5562 5559 5556 5552 5548 5545 5541 5538 5534 5530 5526 5521 5517 5512 5508 5502 5498 5493